DELTA 1 DEB, 2888

Orbit data source: Space-Track

DELTA 1 DEB, 2888 is space debris in LEO originally from a launch on Sat, 06 Nov 1965 UTC launched from the Air Force Eastern Test Range (AFETR). Debris objects in space refer to the collection of defunct objects orbiting the Earth. Examples of debris include non-operational satellites, rocket bodies, and fragments generated from explosions, collisions, or faulty payload assembly.

Loading next visibility...
Identifier
2888, 1965-089D
Orbit
LEO
Country
Flag of USUS
Related business
Manufacturer
Unknown
Mission
Spacecraft
Bus & Motor
Unknown
Mass
Unknown
Launch date (UTC)
1965-11-06 (60 years ago)
Launch vehicle
Unknown
Launch site
Air Force Eastern Test Range (AFETR)
Object type
Payload
Rocket body
Debris
Shape & HBR
Unknown shape, 0.1 m
Radar Cross Section
Small (<0.1 m²)

Expand to show TLE details & history
Last TLE update: 16 hours ago

TLE from 16 hours ago
0 DELTA 1 DEB
1  2888U 65089D   26035.25256082 -.00000030  00000-0  30322-3 0  9997
2  2888  59.2011 287.8735 0719559 165.2957 299.4335 11.87424309558706
Epoch: 2026-02-04T06:03Z
TLE epoch observation values (Epoch: 2026-02-04T06:03:41.254Z)
Latitude
58.5681°
Longitude
166.47301°
Altitude
1,492.721 km
Speed
7.234 km/s
True Right ascension
02h 07m 16s
True Declination
58° 25' 45"
Sunlit
Object was in daylight at epoch
Visualization orbit readout
Latitude
Unknown
Longitude
Unknown
Altitude
Unknown
Speed
Unknown
Apparent Right ascension
Unknown
Apparent Declination
Unknown
Sunlit
N/A
Visualization observer readout
Local Sidereal Time
23:43:10
Azimuth
Unknown
Elevation
Unknown
Doppler factor
Unknown
Orbital elements
Apogee altitude
2,321.02 km
Perigee altitude
1,153.144 km
Semi-major axis
8,115.219 km
Eccentricity
0.07196
Inclination
59.2011°
RAAN
287.8735°
Arg. of periapsis
165.2957°
True anomaly
291.94231°
Mean anomaly
299.4335°
Eccentric anomaly
295.71917°
Mean motion
2.96888 °/min
Orbital period
121.26 mins
BSTAR
0.00030322
Loading maneuver chart data...
Computing Atmospheric mass density...
Loading historical data...
Loading historical data...
Loading historical data...
Loading historical data...
Loading historical data...
Loading historical data...
Loading historical data...

Documentation

Showing up to 5 results
|